CNX201 CYOS-CPY4

Flight info

Callsign CNX201
Flight time N/A
Altitude 5000
Route ETBOX DCT KENLU DCT UDNOX
Aircraft BE58/L-SDFGRY/C

Departure

Time 2026-05-05 01:43
Airport Owen Sound / Billy Bishop Regional Airport (CYOS)

Arrival

Time N/A
Airport CPY4
Time Latitude Longitude Altitude Speed Heading
2026-05-05 01:37 44.58600 -80.83548 1023 ft 0 kts 173°
2026-05-05 01:39 44.58590 -80.83546 1020 ft 6 kts 173°
2026-05-05 01:39 44.58538 -80.83574 1022 ft 7 kts 265°
2026-05-05 01:39 44.58533 -80.83633 1019 ft 4 kts 261°
2026-05-05 01:39 44.58533 -80.83640 1019 ft 0 kts 265°
2026-05-05 01:40 44.58533 -80.83641 1019 ft 1 kts 265°
2026-05-05 01:40 44.58556 -80.83711 1015 ft 10 kts 347°
2026-05-05 01:40 44.58688 -80.83742 1018 ft 30 kts 351°
2026-05-05 01:40 44.58916 -80.83791 1017 ft 35 kts 352°
2026-05-05 01:41 44.59146 -80.83844 1017 ft 33 kts 349°
2026-05-05 01:41 44.59363 -80.83891 1014 ft 28 kts 351°
2026-05-05 01:41 44.59537 -80.83927 1010 ft 13 kts
2026-05-05 01:41 44.59579 -80.83930 1009 ft 5 kts 254°
2026-05-05 01:42 44.59521 -80.83929 1010 ft 31 kts 171°
2026-05-05 01:42 44.59093 -80.83832 1019 ft 88 kts 172°
2026-05-05 01:42 44.58427 -80.83644 1197 ft 98 kts 173°
2026-05-05 01:42 44.57736 -80.83467 1392 ft 107 kts 175°
2026-05-05 01:43 44.57092 -80.82975 1535 ft 116 kts 133°
2026-05-05 01:43 44.56846 -80.81788 1644 ft 140 kts 99°
2026-05-05 01:43 44.57180 -80.80336 1607 ft 167 kts 57°
2026-05-05 01:43 44.57951 -80.79232 2018 ft 157 kts 34°
2026-05-05 01:44 44.58890 -80.78401 2209 ft 162 kts 54°
2026-05-05 01:44 44.59152 -80.76986 2471 ft 148 kts 113°
2026-05-05 01:44 44.58904 -80.75556 2671 ft 154 kts 114°
2026-05-05 01:44 44.58690 -80.74069 2819 ft 159 kts 109°
2026-05-05 01:45 44.58516 -80.72520 2964 ft 162 kts 108°
2026-05-05 01:45 44.58353 -80.70952 3162 ft 163 kts 108°
2026-05-05 01:45 44.58210 -80.69375 3321 ft 164 kts 108°
2026-05-05 01:45 44.58054 -80.67795 3502 ft 164 kts 107°
2026-05-05 01:46 44.57899 -80.66203 3646 ft 165 kts 106°
2026-05-05 01:46 44.57751 -80.64597 3820 ft 167 kts 106°
2026-05-05 01:46 44.57599 -80.62983 3991 ft 167 kts 106°
2026-05-05 01:46 44.57441 -80.61364 4141 ft 168 kts 107°
2026-05-05 01:47 44.57286 -80.59723 4322 ft 171 kts 106°
2026-05-05 01:47 44.57126 -80.58069 4513 ft 172 kts 105°
2026-05-05 01:47 44.56962 -80.56406 4694 ft 173 kts 105°
2026-05-05 01:47 44.56805 -80.54737 4859 ft 173 kts 105°
2026-05-05 01:48 44.56645 -80.53066 5010 ft 173 kts 105°
2026-05-05 01:48 44.56481 -80.51383 5140 ft 174 kts 105°
2026-05-05 01:48 44.56317 -80.49695 5223 ft 175 kts 105°
2026-05-05 01:48 44.56152 -80.48009 5333 ft 175 kts 105°
2026-05-05 01:49 44.55988 -80.46318 5484 ft 175 kts 105°
2026-05-05 01:49 44.55822 -80.44625 5638 ft 175 kts 106°
2026-05-05 01:49 44.55660 -80.42937 5792 ft 175 kts 105°
2026-05-05 01:49 44.55494 -80.41249 5920 ft 175 kts 105°
2026-05-05 01:50 44.55329 -80.39559 6045 ft 175 kts 105°
2026-05-05 01:50 44.55163 -80.37866 6164 ft 176 kts 105°
2026-05-05 01:50 44.54996 -80.36168 6276 ft 176 kts 105°
2026-05-05 01:50 44.54831 -80.34487 6372 ft 177 kts 105°
2026-05-05 01:51 44.54662 -80.32776 6466 ft 178 kts 104°
2026-05-05 01:51 44.54493 -80.31058 6563 ft 178 kts 104°
2026-05-05 01:51 44.54324 -80.29338 6654 ft 178 kts 104°
2026-05-05 01:51 44.54153 -80.27618 6742 ft 179 kts 104°
2026-05-05 01:52 44.53982 -80.25893 6822 ft 178 kts 104°
2026-05-05 01:52 44.53813 -80.24176 6897 ft 178 kts 104°
2026-05-05 01:52 44.53641 -80.22460 6960 ft 178 kts 104°
2026-05-05 01:52 44.53470 -80.20738 7018 ft 179 kts 104°
2026-05-05 01:53 44.53298 -80.19010 7080 ft 179 kts 103°
2026-05-05 01:53 44.53127 -80.17281 7145 ft 179 kts 103°
2026-05-05 01:53 44.52954 -80.15558 7205 ft 177 kts 103°
2026-05-05 01:53 44.52782 -80.13845 7249 ft 178 kts 103°
2026-05-05 01:54 44.52532 -80.12162 7277 ft 175 kts 114°
2026-05-05 01:54 44.52157 -80.10534 7317 ft 176 kts 114°
2026-05-05 01:54 44.51796 -80.08898 7355 ft 176 kts 113°
2026-05-05 01:54 44.51441 -80.07276 7488 ft 168 kts 113°
2026-05-05 01:55 44.51103 -80.05733 7601 ft 166 kts 114°
2026-05-05 01:55 44.50759 -80.04185 7662 ft 167 kts 114°
2026-05-05 01:55 44.50416 -80.02639 7740 ft 167 kts 113°
2026-05-05 01:55 44.50074 -80.01087 7812 ft 167 kts 113°
2026-05-05 01:56 44.49729 -79.99535 7877 ft 167 kts 113°
2026-05-05 01:56 44.49386 -79.97980 7947 ft 167 kts 113°
2026-05-05 01:56 44.49042 -79.96427 8011 ft 167 kts 113°
2026-05-05 01:56 44.48696 -79.94866 8044 ft 170 kts 114°
2026-05-05 01:57 44.48341 -79.93272 8055 ft 172 kts 113°
2026-05-05 01:57 44.47983 -79.91658 8056 ft 174 kts 113°
2026-05-05 01:57 44.47621 -79.90031 8055 ft 177 kts 113°
2026-05-05 01:57 44.47254 -79.88377 8057 ft 178 kts 113°
2026-05-05 01:58 44.46885 -79.86718 8067 ft 180 kts 112°
2026-05-05 01:58 44.46510 -79.85041 8064 ft 181 kts 113°
2026-05-05 01:58 44.46135 -79.83358 8064 ft 182 kts 112°
2026-05-05 01:58 44.45759 -79.81660 8064 ft 183 kts 112°
2026-05-05 01:59 44.45380 -79.79962 8068 ft 183 kts 112°
2026-05-05 01:59 44.45001 -79.78263 8062 ft 183 kts 112°
2026-05-05 01:59 44.44620 -79.76567 8067 ft 183 kts 112°
2026-05-05 01:59 44.44240 -79.74878 8065 ft 185 kts 112°
2026-05-05 02:00 44.43854 -79.73141 8070 ft 184 kts 112°
2026-05-05 02:00 44.43469 -79.71428 8076 ft 184 kts 112°
2026-05-05 02:00 44.43085 -79.69716 8075 ft 184 kts 112°
2026-05-05 02:00 44.42701 -79.68006 8075 ft 184 kts 112°
2026-05-05 02:01 44.42317 -79.66294 8077 ft 184 kts 112°
2026-05-05 02:01 44.41933 -79.64585 8076 ft 184 kts 112°
2026-05-05 02:01 44.41546 -79.62871 8077 ft 185 kts 112°
2026-05-05 02:01 44.41160 -79.61155 8081 ft 185 kts 112°
2026-05-05 02:02 44.40772 -79.59433 8084 ft 185 kts 112°
2026-05-05 02:02 44.40386 -79.57719 8082 ft 184 kts 112°
2026-05-05 02:02 44.40001 -79.56011 8086 ft 184 kts 112°
2026-05-05 02:02 44.39615 -79.54308 8085 ft 184 kts 112°
2026-05-05 02:03 44.39230 -79.52603 8090 ft 184 kts 112°
2026-05-05 02:03 44.38844 -79.50897 8089 ft 184 kts 112°
2026-05-05 02:03 44.38460 -79.49201 8088 ft 183 kts 112°
2026-05-05 02:03 44.38075 -79.47501 8087 ft 183 kts 112°
2026-05-05 02:04 44.37691 -79.45807 8084 ft 183 kts 112°
2026-05-05 02:04 44.37305 -79.44111 8084 ft 183 kts 112°
2026-05-05 02:04 44.36921 -79.42415 8084 ft 183 kts 112°
2026-05-05 02:04 44.36534 -79.40713 8084 ft 184 kts 112°
2026-05-05 02:05 44.36145 -79.39008 8087 ft 184 kts 112°
2026-05-05 02:05 44.35757 -79.37302 8087 ft 184 kts 112°
2026-05-05 02:05 44.35368 -79.35595 8086 ft 184 kts 112°
2026-05-05 02:05 44.34979 -79.33888 8086 ft 185 kts 112°
2026-05-05 02:06 44.34721 -79.32759 8092 ft 185 kts 112°
2026-05-05 02:06 44.34330 -79.31047 8095 ft 184 kts 112°
2026-05-05 02:06 44.33941 -79.29340 8095 ft 184 kts 112°
2026-05-05 02:06 44.33551 -79.27639 8095 ft 184 kts 112°
2026-05-05 02:07 44.33162 -79.25937 8097 ft 184 kts 112°
2026-05-05 02:07 44.32772 -79.24237 8096 ft 184 kts 112°
2026-05-05 02:07 44.32382 -79.22539 8096 ft 184 kts 112°
2026-05-05 02:07 44.32150 -79.20786 8091 ft 186 kts 88°
2026-05-05 02:08 44.32238 -79.18986 8096 ft 186 kts 88°
2026-05-05 02:08 44.32286 -79.17178 8097 ft 187 kts 88°
2026-05-05 02:08 44.32344 -79.15360 8106 ft 188 kts 88°
2026-05-05 02:08 44.32408 -79.13532 8106 ft 188 kts 88°
2026-05-05 02:09 44.32470 -79.11706 8111 ft 188 kts 88°
2026-05-05 02:09 44.32531 -79.09877 8104 ft 188 kts 88°
2026-05-05 02:09 44.32592 -79.08049 8103 ft 189 kts 88°
2026-05-05 02:09 44.32651 -79.06225 8101 ft 188 kts 88°
2026-05-05 02:10 44.32711 -79.04402 8096 ft 188 kts 87°
2026-05-05 02:10 44.32772 -79.02585 8097 ft 188 kts 87°
2026-05-05 02:10 44.32831 -79.00764 8094 ft 188 kts 87°
2026-05-05 02:10 44.32889 -78.98944 8096 ft 188 kts 87°
2026-05-05 02:11 44.32951 -78.97116 8086 ft 189 kts 87°
2026-05-05 02:11 44.33012 -78.95243 7965 ft 196 kts 87°
2026-05-05 02:11 44.33074 -78.93333 7849 ft 198 kts 87°
2026-05-05 02:11 44.33132 -78.91400 7733 ft 201 kts 88°
2026-05-05 02:12 44.33193 -78.89446 7613 ft 202 kts 88°
2026-05-05 02:12 44.33315 -78.85510 7371 ft 203 kts 88°
2026-05-05 02:12 44.33377 -78.83538 7250 ft 203 kts 88°
2026-05-05 02:13 44.33438 -78.81564 7127 ft 204 kts 88°
2026-05-05 02:13 44.33499 -78.79589 7006 ft 204 kts 88°
2026-05-05 02:13 44.33559 -78.77616 6882 ft 204 kts 88°
2026-05-05 02:13 44.33619 -78.75638 6758 ft 204 kts 88°
2026-05-05 02:14 44.33679 -78.73661 6630 ft 203 kts 88°
2026-05-05 02:14 44.33738 -78.71687 6508 ft 203 kts 88°
2026-05-05 02:14 44.33798 -78.69709 6387 ft 204 kts 89°
2026-05-05 02:14 44.33857 -78.67729 6280 ft 204 kts 88°
2026-05-05 02:15 44.33915 -78.65754 6153 ft 203 kts 88°
2026-05-05 02:15 44.33971 -78.63780 6023 ft 203 kts 88°
2026-05-05 02:15 44.34029 -78.61814 5901 ft 203 kts 89°
2026-05-05 02:15 44.34086 -78.59848 5768 ft 202 kts 89°
2026-05-05 02:16 44.34143 -78.57882 5641 ft 203 kts 89°
2026-05-05 02:16 44.34200 -78.55914 5511 ft 202 kts 89°
2026-05-05 02:16 44.34254 -78.53960 5384 ft 200 kts 90°
2026-05-05 02:16 44.34311 -78.52015 5259 ft 200 kts 90°
2026-05-05 02:17 44.34363 -78.50078 5132 ft 199 kts 90°
2026-05-05 02:17 44.34418 -78.48148 5010 ft 199 kts 90°
2026-05-05 02:17 44.34472 -78.46217 4877 ft 198 kts 90°
2026-05-05 02:17 44.34522 -78.44296 4759 ft 198 kts 90°
2026-05-05 02:18 44.34580 -78.42373 4629 ft 198 kts 90°
2026-05-05 02:18 44.34627 -78.40453 4508 ft 198 kts 91°
2026-05-05 02:18 44.34680 -78.38537 4384 ft 197 kts 91°
2026-05-05 02:18 44.34733 -78.36639 4255 ft 194 kts 91°
2026-05-05 02:19 44.34785 -78.34762 4125 ft 194 kts 91°
2026-05-05 02:19 44.34835 -78.32889 3997 ft 192 kts 91°
2026-05-05 02:19 44.34884 -78.31026 3867 ft 192 kts 91°
2026-05-05 02:19 44.34935 -78.29166 3739 ft 191 kts 91°
2026-05-05 02:20 44.34984 -78.27314 3612 ft 191 kts 92°
2026-05-05 02:20 44.35028 -78.25488 3487 ft 190 kts 92°
2026-05-05 02:20 44.35078 -78.23645 3367 ft 189 kts 92°
2026-05-05 02:20 44.35125 -78.21808 3240 ft 189 kts 91°
2026-05-05 02:21 44.35171 -78.19972 3118 ft 189 kts 92°
2026-05-05 02:21 44.35218 -78.18130 2993 ft 189 kts 92°
2026-05-05 02:21 44.35264 -78.16296 2869 ft 189 kts 93°
2026-05-05 02:21 44.35307 -78.14465 2737 ft 188 kts 92°
2026-05-05 02:22 44.35355 -78.12640 2612 ft 188 kts 92°
2026-05-05 02:22 44.35401 -78.10817 2485 ft 188 kts 92°
2026-05-05 02:22 44.35445 -78.08999 2366 ft 186 kts 94°
2026-05-05 02:22 44.35485 -78.07198 2237 ft 185 kts 94°
2026-05-05 02:23 44.35515 -78.05411 2131 ft 181 kts 94°
2026-05-05 02:23 44.35554 -78.03714 2120 ft 169 kts 93°
2026-05-05 02:23 44.35589 -78.02120 2112 ft 160 kts 94°
2026-05-05 02:23 44.35631 -78.00586 2115 ft 156 kts 93°
2026-05-05 02:24 44.35672 -77.99096 2121 ft 149 kts 93°
2026-05-05 02:24 44.35715 -77.97689 2118 ft 142 kts 92°
2026-05-05 02:24 44.35874 -77.96343 2122 ft 139 kts 69°
2026-05-05 02:24 44.36575 -77.95526 1961 ft 133 kts 18°
2026-05-05 02:25 44.37466 -77.95478 1636 ft 126 kts 329°
2026-05-05 02:25 44.37976 -77.96365 1288 ft 118 kts 262°
2026-05-05 02:25 44.37623 -77.97275 1074 ft 101 kts 229°
2026-05-05 02:25 44.37225 -77.98041 844 ft 97 kts 237°
2026-05-05 02:26 44.36900 -77.98911 679 ft 103 kts 238°
2026-05-05 02:26 44.36614 -77.99691 657 ft 72 kts 224°
2026-05-05 02:26 44.36459 -78.00065 658 ft 16 kts 247°
2026-05-05 02:26 44.36399 -78.00230 658 ft 24 kts 243°
2026-05-05 02:27 44.36344 -78.00348 661 ft 5 kts 189°
2026-05-05 02:27 44.36332 -78.00348 661 ft 0 kts 181°
2026-05-05 02:27 44.36302 -78.00343 663 ft 6 kts 152°
2026-05-05 02:27 44.36296 -78.00336 663 ft 0 kts 131°
2026-05-05 02:28 44.36296 -78.00334 663 ft 0 kts 360°